Location: �quirre
(50.4736°N, 2.2351°E)
Time: 05:34:14
(UTC+00:00)

ARIANE 5 R/B - Pass Details

Date: 07 August 2020
Orbit: 749 x 794 km, 98.6° (Epoch: 19 September)

Event Time Altitude Azimuth Distance (km) Brightness Sun altitude
Rises 03:45:11 0° 9° (N) 3,294 6.5 -6.6°
Reaches altitude 10° 03:47:37 10° 2° (N) 2,366 5.6 -6.3°
Maximum altitude 03:52:26 39° 296° (WNW) 1,182 3.3 -5.7°
Drops below altitude 10° 03:57:15 10° 229° (SW) 2,362 4.4 -5.1°
Enters shadow 03:58:23 - 224° (SW) 2,787 4.7 -4.9°
